Location: De Hem
(53.1353°N, 5.6896°E)
Time: 11:57:59
(UTC+00:00)

Daily predictions for brighter satellites

Satellite Brightness Start Highest point End
(mag) Time Altitude Azimuth Time Altitude Azimuth Time Altitude Azimuth
NOSS 0 Rocket 4.0 15:50:46 10° SSW 15:57:00 78° ESE 16:03:15 10° NE
Cosmos 44 Rocket 4.3 15:54:46 10° NW 15:59:20 31° NNE 16:03:57 10° E
Cosmos 405 3.5 15:58:36 10° SSW 16:02:02 60° WNW 16:05:30 10° N
SJ-7 4.4 15:59:15 10° SSE 16:03:09 59° ENE 16:07:07 10° N
Cosmos 1666 Rocket 4.0 16:00:14 10° N 16:04:24 39° ENE 16:08:35 10° SE
Cosmos 44 3.8 16:00:27 10° NW 16:05:43 79° SW 16:11:08 10° SE
Cosmos 1939 Rocket 4.4 16:03:45 10° E 16:05:59 15° ENE 16:08:15 10° NNE
Cosmos 2237 Rocket 2.2 16:01:18 10° SSW 16:06:54 75° ESE 16:12:34 10° NE
Cosmos 389 Rocket 3.2 16:04:14 10° SSE 16:07:20 33° E 16:10:27 10° NNE
SL-16 R/B 4.1 16:05:55 10° WNW 16:09:54 19° NNW 16:13:53 10° NNE
PSLV R/B 3.8 16:06:48 10° SSE 16:10:51 70° ENE 16:14:53 10° N
CZ-4B R/B 3.3 16:06:20 10° SE 16:11:24 48° ENE 16:16:29 10° N
CZ-4B R/B 3.9 16:07:50 10° S 16:12:03 57° W 16:16:28 10° NNW
Meteor PRIRODA 4.3 16:09:12 10° S 16:12:51 60° W 16:16:33 10° NNW
Cosmos 2369 Rocket 2.6 16:07:42 10° NNW 16:13:10 43° NE 16:18:32 10° ESE
H-2A R/B 2.5 16:10:01 10° SSE 16:14:07 60° ENE 16:18:07 10° N
Cosmos 1943 Rocket 2.2 16:09:23 10° NNW 16:14:53 60° NE 16:20:25 10° SE
ADEOS Rocket 3.7 16:07:59 10° NNE 16:15:42 64° E 16:23:21 10° S
MOS 1-B 4.3 16:10:54 10° SSE 16:16:42 78° ENE 16:22:32 10° NNW
H-2A R/B 2.8 16:16:20 10° NNE 16:20:08 32° E 16:23:58 10° SSE
Cosmos 2221 3.3 16:16:30 10° SSW 16:20:43 54° WNW 16:24:58 10° N
NOAA 12 4.3 16:15:52 10° SE 16:21:02 53° ENE 16:26:12 10° N
Cosmos 1980 3.9 16:21:10 10° SW 16:26:52 80° WNW 16:32:37 10° NNE
NOAA 6 4.0 16:22:34 10° SSE 16:27:44 88° ENE 16:32:54 10° NNW
Okean O Rocket 1.8 16:23:31 10° SE 16:27:44 49° ENE 16:32:01 10° N
Cosmos 1782 4.2 16:25:38 10° SE 16:28:28 19° E 16:31:08 11° NE
Cosmos 1633 Rocket 3.1 16:24:25 10° N 16:28:43 53° ENE 16:32:59 10° SSE
Okean-O 4.1 16:26:52 10° E 16:29:41 17° NE 16:32:31 10° NNE
ISS -3.5 16:26:30 10° WSW 16:29:52 68° S 16:32:58 12° E
H-2A R/B 3.3 16:28:23 10° S 16:32:13 63° WSW 16:36:07 10° NNW
Meteor 2-12 Rocket 4.5 16:26:34 10° N 16:32:46 88° E 16:38:53 10° S
Cosmos 1933 3.8 16:30:09 10° SSE 16:33:57 40° E 16:37:48 10° NNE
Cosmos 2218 Rocket 4.0 16:28:57 10° N 16:35:01 56° ENE 16:41:03 10° SSE
Cosmos 2366 rocket 4.1 16:29:53 10° N 16:35:59 55° ENE 16:42:00 10° SSE
Nadezhda 1 Rocket 4.2 16:29:58 10° SSW 16:36:21 80° W 16:42:49 10° N
Meteor 1-25 Rocket 4.2 16:31:15 10° N 16:36:53 68° ENE 16:42:34 10° SSE
ERS-2 3.8 16:36:10 15° ENE 16:37:04 16° E 16:39:21 10° SE
Cosmos 1867 3.6 16:34:34 10° SSW 16:39:59 74° SE 16:44:55 13° NE
Envisat 3.3 16:38:57 10° S 16:44:01 71° WSW 16:49:07 10° NNW
Cosmos 371 Rocket 4.5 16:43:05 10° N 16:46:57 23° NE 16:49:18 16° E
Lacrosse 5 rocket 1.4 16:44:30 10° SW 16:48:02 50° SE 16:50:15 20° ENE
Cosmos 773 Rocket 4.3 16:45:07 10° S 16:50:08 47° ESE 16:54:45 12° NE
YAOGAN 6 3.1 16:49:26 10° S 16:53:01 61° W 16:56:35 10° NNW
Cosmos 2322 Rocket 4.3 16:49:57 10° NW 16:53:17 15° NNW 16:56:36 10° NNE
Cosmos 1606 2.9 16:51:44 10° SSW 16:55:37 73° W 16:59:31 10° N
CZ-4B R/B 2.3 16:56:26 24° E 16:56:46 24° E 16:59:26 10° SSE
Landsat 5 3.6 16:53:26 10° NNE 16:57:54 90° ESE 17:02:26 10° SSW
AQUARIUS 4.1 16:53:41 10° SSE 16:58:11 90° NE 17:02:43 10° NNW
FengYun 1-2 T 4.1 16:52:44 10° SSE 16:58:14 74° ENE 17:03:44 10° NNW
Feng Yun 1-1 Rocket 4.3 16:52:51 10° SE 16:58:24 55° ENE 17:03:49 10° N
SL-16 R/B 2.2 16:54:24 10° SSW 17:00:03 73° ESE 17:05:04 13° NE
BREEZE-M DEB (TANK) 3.7 17:01:26 10° SSW 17:02:57 16° SSE 17:03:26 15° SE
Cosmos 1500 3.8 17:00:46 10° N 17:04:17 33° ENE 17:07:47 10° SE
SMAP 3.4 17:02:36 10° S 17:07:14 69° WSW 17:11:54 10° NNW
Cosmos 1656 Rocket 3.7 17:03:13 10° NNW 17:08:49 57° NE 17:14:19 10° SE
CZ-4C R/B 3.6 17:05:23 10° N 17:08:59 60° WNW 17:12:33 10° SSW
YAOGAN 1 3.4 17:09:18 22° E 17:10:58 28° ENE 17:14:42 10° N
Cosmos 1470 Rocket 3.4 17:06:55 10° N 17:11:16 80° ENE 17:15:36 10° SSE
Cosmos 783 Rocket 4.5 17:07:54 10° SSW 17:13:12 89° ESE 17:17:59 13° NNE
CSL-04 DEB 4.4 17:09:42 11° NNE 17:13:37 70° ESE 17:17:50 10° S
Cosmos 1151 Rocket 2.9 17:09:46 10° S 17:14:03 80° E 17:18:20 10° NNE
Cosmos 2263 4.1 17:12:04 10° NNW 17:17:42 78° NE 17:23:19 10° SE
SL-8 Rocket 4.4 17:13:58 10° NNW 17:20:10 67° W 17:26:23 10° S
Cosmos 1515 Rocket 3.6 17:17:48 10° S 17:22:04 53° E 17:25:08 18° NNE
CZ-2C R/B 3.1 17:18:21 10° SE 17:23:00 44° ENE 17:27:31 10° N
Cosmos 1238 Rocket 3.4 17:19:46 10° N 17:23:22 37° ENE 17:27:39 10° SE
COSMO-SKYMED 1 3.0 17:23:06 31° ENE 17:24:23 39° E 17:28:27 10° SSE
TIMED 4.5 17:21:11 10° SSW 17:25:31 65° ESE 17:27:39 29° NE
TELKOM 3 4.1 17:23:34 10° WSW 17:26:07 36° S 17:26:18 35° S
X-37B 2.8 17:26:57 10° SSW 17:29:00 16° SSE 17:29:28 15° SSE
Cosmos 2360 Rocket 4.3 17:25:59 10° NW 17:29:10 15° NNW 17:32:21 10° NNE
Cosmos 2333 Rocket 4.1 17:25:36 10° WNW 17:29:50 21° NNW 17:34:03 10° NNE
USA 281 3.2 17:23:30 10° SE 17:29:57 61° NE 17:36:25 10° NNW
YAOGAN 3 4.5 17:26:46 10° SSE 17:31:08 85° ENE 17:35:31 10° NNW
Nadezhda 3 Rocket 4.3 17:25:41 10° SSE 17:31:40 45° E 17:37:39 10° NNE
Cosmos 2219 Rocket 4.1 17:27:34 10° WNW 17:31:47 21° NNW 17:36:01 10° NNE
Helios 1A Rocket 3.0 17:33:25 38° ESE 17:34:24 47° ENE 17:38:18 10° N
Meteor 2-6 Rocket 4.4 17:29:22 10° SSE 17:34:35 44° E 17:37:14 26° NE
Cosmos 2228 Rocket 3.6 17:30:33 10° SSE 17:34:28 37° E 17:34:28 37° E
Cosmos 1821 Rocket 3.9 17:29:41 10° N 17:35:55 66° ENE 17:42:12 10° SSE
Meteor 1-4 Rocket 2.4 17:32:23 10° SSW 17:35:58 88° WNW 17:37:26 33° NNE
H-2A R/B 2.3 17:35:17 24° ESE 17:37:53 42° ENE 17:42:39 10° N
USA 267 3.2 17:34:11 25° ESE 17:38:19 81° NNE 17:44:53 10° WNW
Cosmos 1812 4.3 17:34:57 10° SSE 17:36:35 22° SE 17:36:35 22° SE
Meteor 1-11 Rocket 3.9 17:33:24 10° N 17:39:00 49° ENE 17:44:41 10° SE
NOSS 3-3 (A) 4.4 17:32:34 10° NW 17:39:50 86° NE 17:47:58 10° SE
NOSS 3-3 (C) 4.4 17:32:37 10° NW 17:39:55 86° NE 17:47:58 11° SE
Cosmos 1939 Rocket 2.8 17:36:29 10° S 17:40:23 80° WSW 17:44:23 10° NNW
Cosmos 1933 Rocket 3.7 17:36:50 10° NNW 17:41:20 77° W 17:45:46 10° S
Cosmos 44 Rocket 3.4 17:36:17 10° NW 17:41:29 90° S 17:45:08 20° SE
Cosmos 1328 Rocket 3.9 17:37:44 10° SSW 17:42:02 64° WNW 17:46:23 10° N
CZ-4 R/B 4.3 17:38:03 10° SSE 17:42:11 78° ENE 17:46:20 10° NNW
CZ-4 R/B 1.3 17:41:26 40° SE 17:42:37 57° ENE 17:46:38 10° N
Cosmos 1980 Rocket 4.0 17:41:55 10° NNW 17:44:55 14° NNE 17:45:16 14° NNE
CSL-04 Rocket 3.9 17:44:04 37° E 17:45:23 44° ENE 17:50:23 10° N
IRS-1C Rocket 4.1 17:41:30 10° SSE 17:46:47 87° WSW 17:52:07 10° NNW
SKYMED 3 4.5 17:47:24 46° NE 17:48:30 64° ESE 17:52:49 10° S
SL-24 R/B 4.3 17:49:33 42° SSE 17:49:33 42° SSE 17:52:14 10° S
Cosmos 2237 Rocket 3.7 17:46:37 10° W 17:51:32 30° NW 17:55:39 14° NNE
Cosmos 1680 Rocket 4.4 17:46:51 10° SSE 17:50:18 30° SE 17:50:18 30° SE
Cosmos 1603 3.7 17:50:09 10° SSW 17:55:38 58° ESE 17:56:56 46° ENE
H-2A R/B 3.5 17:52:18 10° N 17:56:08 35° WNW 18:00:02 10° SW
SL-16 R/B 4.3 17:53:56 10° NNW 17:56:26 13° N 17:57:42 12° NNE
CZ-2D R/B 3.4 17:53:25 10° S 17:57:15 73° WSW 18:01:07 10° NNW
Cosmos 2369 Rocket 3.2 17:51:51 10° NW 17:57:17 47° WSW 18:02:40 10° S
Cosmos 1943 Rocket 4.1 17:53:34 10° NW 17:58:20 30° WSW 18:03:08 10° SSW
Cosmos 1943 3.3 17:53:31 10° S 17:59:01 55° ESE 17:59:58 49° ENE
Meteor 1-5 Rocket 4.3 17:53:31 10° NNW 17:59:29 84° W 18:05:16 10° S
Cosmos 1538 Rocket 4.0 17:55:45 10° SSW 18:01:08 85° WNW 18:03:44 32° NNE
Cosmos 1371 Rocket 3.9 17:57:26 10° NNW 18:02:38 67° ENE 18:03:40 53° ESE
Okean O Rocket 4.0 18:00:49 10° SSW 18:04:22 24° W 18:07:57 10° NW
Cosmos 1782 3.7 18:00:35 10° SSW 18:04:26 49° WNW 18:06:45 22° N
Okean-O 2.5 18:01:10 10° SSE 18:05:36 86° WSW 18:10:04 10° NNW
ISS -2.7 18:03:14 10° W 18:05:55 44° SW 18:05:55 44° SW
ARGOS 3.2 18:08:31 55° ENE 18:08:31 55° ENE 18:13:37 10° N
Cosmos 2056 Rocket 3.4 18:03:38 10° NNW 18:08:55 67° ENE 18:09:29 62° E
CENTAUR R/B 3.5 18:03:58 10° S 18:07:44 29° SE 18:07:44 29° SE
ERS-2 2.6 18:10:45 56° NW 18:10:57 57° WNW 18:14:33 10° SSW
SKYMED 2 3.6 18:11:44 56° N 18:12:35 78° WNW 18:16:56 10° SSW
Cosmos 1869 Rocket 3.6 18:11:34 10° NNW 18:16:05 80° W 18:17:48 37° S
Cosmos 1605 Rocket 4.1 18:16:39 10° N 18:21:48 53° NE 18:21:48 53° NE
SJ-11-01 4.3 18:23:23 70° N 18:23:23 70° N 18:27:37 10° NNW
Cosmos 1624 Rocket 3.9 18:20:19 10° NNW 18:25:40 87° ENE 18:25:56 81° SE
Lacrosse 5 rocket 2.6 18:23:36 10° W 18:25:53 34° WNW 18:25:53 34° WNW
Meteor 1-10 Rocket 4.0 18:22:04 10° S 18:27:42 87° ESE 18:28:50 59° NNE
Cosmos 371 Rocket 3.3 18:23:04 10° NNW 18:27:59 79° WSW 18:28:01 79° WSW
CZ-4B R/B 3.6 18:29:34 23° W 18:29:34 23° W 18:31:37 10° WSW
Cosmos 2322 Rocket 4.4 18:37:13 10° NNW 18:39:26 13° N 18:39:26 13° N
NOSS 3-2 (A) 3.5 18:36:30 10° SSW 18:41:27 61° S 18:41:27 61° S
Cosmos 1535 Rocket 4.4 18:37:17 10° NNW 18:43:25 79° W 18:49:31 10° S
SL-16 R/B 3.7 18:39:43 10° WSW 18:44:42 31° NW 18:46:58 23° N
USA 215 3.4 18:46:42 54° SSE 18:46:42 54° SSE 18:52:35 10° SW
YAOGAN 1 3.7 18:46:28 40° WSW 18:46:56 42° W 18:51:05 10° NNW
Cosmos 1697 Rocket 4.4 18:46:19 10° NNW 18:48:48 22° N 18:48:48 22° N
MOS 1 Rocket 3.9 18:52:44 66° WSW 18:52:44 66° WSW 18:57:33 10° SSW
COSMO-SKYMED 1 4.3 19:00:19 31° WNW 19:00:28 31° WNW 19:04:16 10° SW
USA 238 DEB 3.8 18:55:01 10° SW 19:00:35 64° SSW 19:00:35 64° SSW
USA 238 3.8 18:55:06 10° SW 19:00:39 63° SSW 19:00:39 63° SSW
USA 281 4.4 19:08:42 10° S 19:14:44 38° WSW 19:20:50 10° NW
H-2A R/B 3.4 19:15:55 30° SW 19:17:23 36° W 19:22:06 10° NNW
CZ-4 R/B 4.0 19:17:28 18° W 19:18:01 18° W 19:20:52 10° NW
USA 267 3.7 19:21:32 51° SW 19:21:38 51° SW 19:28:01 10° WNW
Cosmos 1980 Rocket 4.4 19:25:46 10° NNW 19:27:02 16° NNW 19:27:02 16° NNW
CENTAUR R/B 4.3 19:53:00 10° SW 19:54:58 23° SW 19:54:58 23° SW
